Location: Florence
(33.9745°N, 118.2481°W)
Time: 20:35:19
(UTC+00:00)

Cosmos 1607 - Pass Details

Date: 23 March 2023
Orbit: 916 x 986 km, 65.0° (Epoch: 05 June)

Event Time Altitude Azimuth Distance (km) Brightness Sun altitude
Rises 12:36:15 0° 198° (SSW) 3,536 6.6 -16.6°
Reaches altitude 10° 12:38:46 10° 195° (SSW) 2,599 6.0 -16.0°
Maximum altitude 12:44:44 64° 115° (ESE) 1,017 4.3 -14.8°
Drops below altitude 10° 12:50:48 10° 35° (NE) 2,641 7.0 -13.6°
Sets 12:53:22 0° 33° (NNE) 3,597 7.7 -13.1°
